Location: Tauranga
(37.6860°S, 176.1670°E)
Time: 16:50:52
(UTC+13:00)

ISS - Visible Passes

Search period start: 27 February 2024 00:00
Search period end: 08 March 2024 00:00
Orbit: 414 x 422 km, 51.6° (Epoch: 26 February)

Date Brightness Start Highest point End Pass type
(mag) Time Alt. Az. Time Alt. Az. Time Alt. Az.
27 Feb -1.7 20:31:32 10° SSW 20:34:02 19° SSE 20:36:32 10° ESE visible
27 Feb -2.2 22:07:44 10° SW 22:09:56 36° WSW 22:09:56 36° WSW visible
28 Feb -3.8 21:19:51 10° SW 21:23:15 70° SE 21:24:01 48° ENE visible
29 Feb -3.0 20:32:04 10° SW 20:35:19 40° SE 20:38:09 12° ENE visible
29 Feb -1.3 22:09:23 10° W 22:11:06 18° WNW 22:11:06 18° WNW visible
01 Mar -2.5 21:20:57 10° WSW 21:24:04 34° NW 21:25:17 26° N visible
02 Mar -3.4 20:32:47 10° SW 20:36:10 66° NW 20:39:30 10° NE visible
03 Mar -0.8 21:23:25 10° WNW 21:24:28 11° NW 21:25:31 10° NW visible
04 Mar -1.3 20:34:00 10° W 20:36:35 20° NW 20:39:08 10° N visible
